{"data":{"norad_id":67375,"intl_designator":"2026-004N","name":"AETHER-4","alt_names":[],"object_type":"PAYLOAD","status":"ACTIVE","operator":null,"country":"CA","launch_date":"2026-01-11","launch_site_code":"AFWTR","launch_vehicle":null,"mission":null,"orbit_class":"UNKNOWN","rcs_meters":null,"size_class":null,"mass_kg":null,"dimensions":null,"purposes":[],"wikipedia_slug":null,"has_3d_model":false,"image_url":null,"decayed_at":null,"tle_current":{"epoch":"2026-05-25T05:26:43.995840Z","epoch_age_seconds":65564,"freshness":"FRESH","line1":"1 67375U 26004N   26145.22689810  .00000654  00000+0  76870-4 0  9990","line2":"2 67375  97.8036 144.2742 0004700 179.9085 180.2134 14.88161586 19880","mean_motion":14.88161586,"eccentricity":0.00047,"inclination_deg":97.8036,"raan_deg":144.2742,"arg_perigee_deg":179.9085,"mean_anomaly_deg":180.2134,"bstar":7.687e-5,"rev_number":1988,"period_min":96.763685714436,"perigee_km":600.39833247444,"apogee_km":606.96124025362,"semimajor_km":6981.816786364,"source":"CELESTRAK","updated_at":"2026-05-25T13:38:06.929755Z"}}}